TimeEST,TemperatureF,Dew PointF,Humidity,Sea Level PressureIn,VisibilityMPH,Wind Direction,Wind SpeedMPH,Gust SpeedMPH,PrecipitationIn,Events,Conditions,WindDirDegrees,DateUTC
12:51 AM,48.9,35.1,59,30.18,10.0,NNE,15.0,-,N/A,,Overcast,30,2012-12-12 05:51:00
1:51 AM,48.9,36.0,61,30.20,10.0,NNE,15.0,-,N/A,,Overcast,30,2012-12-12 06:51:00
2:51 AM,48.0,36.0,63,30.22,10.0,NE,15.0,-,N/A,,Overcast,40,2012-12-12 07:51:00
3:51 AM,46.9,33.1,59,30.22,10.0,NNE,17.3,-,N/A,,Overcast,30,2012-12-12 08:51:00
4:51 AM,46.0,33.1,61,30.24,10.0,NNE,18.4,-,0.00,,Overcast,30,2012-12-12 09:51:00
5:51 AM,46.0,30.9,56,30.25,10.0,NNE,18.4,-,N/A,,Overcast,30,2012-12-12 10:51:00
6:51 AM,46.0,32.0,58,30.27,10.0,NNE,18.4,21.9,0.00,Rain,Light Rain,30,2012-12-12 11:51:00
7:51 AM,45.0,33.1,63,30.30,10.0,NNE,12.7,-,0.00,,Overcast,30,2012-12-12 12:51:00
8:51 AM,45.0,35.1,68,30.31,10.0,NNE,15.0,-,0.01,,Overcast,30,2012-12-12 13:51:00
9:51 AM,45.0,35.1,68,30.33,10.0,NE,15.0,-,0.01,,Overcast,40,2012-12-12 14:51:00
10:51 AM,46.0,35.1,66,30.33,10.0,NE,15.0,-,0.00,,Overcast,40,2012-12-12 15:51:00
11:51 AM,46.0,33.1,61,30.33,10.0,NNE,13.8,-,N/A,,Overcast,30,2012-12-12 16:51:00
12:51 PM,46.0,30.9,56,30.32,10.0,NNE,17.3,-,N/A,,Overcast,30,2012-12-12 17:51:00
1:51 PM,46.9,30.0,52,30.32,10.0,NNE,11.5,-,N/A,,Overcast,20,2012-12-12 18:51:00
2:51 PM,46.9,30.0,52,30.30,10.0,NNE,16.1,-,N/A,,Overcast,30,2012-12-12 19:51:00
3:51 PM,46.9,30.0,52,30.31,10.0,NNE,17.3,23.0,N/A,,Overcast,20,2012-12-12 20:51:00
4:51 PM,46.9,30.9,54,30.32,10.0,NNE,15.0,-,N/A,,Overcast,30,2012-12-12 21:51:00
5:51 PM,46.0,30.0,54,30.32,10.0,NNE,16.1,-,N/A,,Overcast,30,2012-12-12 22:51:00
6:51 PM,46.0,32.0,58,30.35,10.0,NNE,16.1,-,N/A,,Overcast,30,2012-12-12 23:51:00
7:51 PM,45.0,30.9,58,30.33,10.0,NNE,16.1,-,N/A,,Overcast,30,2012-12-13 00:51:00
9:51 PM,45.0,32.0,60,30.35,10.0,NNE,17.3,21.9,N/A,,Overcast,20,2012-12-13 02:51:00
10:51 PM,44.6,33.8,66,30.32,10.0,NE,18.4,23.0,N/A,,Overcast,40,2012-12-13 03:51:00
11:51 PM,45.0,34.0,65,30.32,10.0,NNE,18.4,-,N/A,,Overcast,20,2012-12-13 04:51:00